This is the latest recevied weather packets stored in our database for station/object AD8BW. If no packets are shown the sender has not sent any weather packets the latest 10 day(s).
| Time | Temp. | Humidity | Pressure | Rain* | Wind** | Luminosity | Snow |
|---|---|---|---|---|---|---|---|
| 1777325073 | 16.67° C | 59% | 1013.7 hPa | 0 mm | - | 91 W/m² | - |
| 1777324476 | 16.67° C | 59% | 1013.9 hPa | 0 mm | - | 91 W/m² | - |
| 1777323873 | 16.67° C | 59% | 1013.9 hPa | 0 mm | - | 91 W/m² | - |
| 1777323274 | 16.67° C | 59% | 1014.1 hPa | 0 mm | - | 91 W/m² | - |
| 1777322673 | 16.67° C | 60% | 1014.3 hPa | 0 mm | - | 97 W/m² | - |
| 1777322077 | 16.67° C | 60% | 1014.3 hPa | 0 mm | - | 123 W/m² | - |
| 1777321480 | 16.67° C | 60% | 1014.3 hPa | 0 mm | - | 135 W/m² | - |
| 1777320873 | 16.67° C | 60% | 1014.1 hPa | 0 mm | - | 137 W/m² | - |
| 1777320276 | 17.22° C | 62% | 1014.1 hPa | 0 mm | - | 158 W/m² | - |
| 1777319668 | 17.22° C | 62% | 1014 hPa | 0 mm | - | 181 W/m² | - |
| 1777319072 | 17.22° C | 62% | 1014 hPa | 0 mm | - | 209 W/m² | - |
| 1777318470 | 17.78° C | 62% | 1014.2 hPa | 0 mm | - | 241 W/m² | - |
| 1777317869 | 17.22° C | 62% | 1014.4 hPa | 0 mm | - | 260 W/m² | - |
| 1777317270 | 17.22° C | 61% | 1014.6 hPa | 0 mm | - | 334 W/m² | - |
| 1777316671 | 17.22° C | 61% | 1014.8 hPa | 0 mm | - | 352 W/m² | - |
| 1777316070 | 17.22° C | 61% | 1014.6 hPa | 0 mm | - | 429 W/m² | - |
| 1777315471 | 17.78° C | 61% | 1014.7 hPa | 0 mm | - | 497 W/m² | - |
| 1777314865 | 17.78° C | 60% | 1014.9 hPa | 0 mm | - | 508 W/m² | - |
| 1777314268 | 17.78° C | 59% | 1015.2 hPa | 0 mm | - | 418 W/m² | - |
| 1777313664 | 17.78° C | 57% | 1015.5 hPa | 0 mm | - | 408 W/m² | - |
| 1777313062 | 17.78° C | 57% | 1015.7 hPa | 0 mm | - | 272 W/m² | - |
| 1777312462 | 17.78° C | 57% | 1016 hPa | 0 mm | - | 432 W/m² | - |
| 1777311866 | 17.22° C | 55% | 1016.4 hPa | 0 mm | - | 571 W/m² | - |
| 1777311266 | 17.78° C | 53% | 1016.7 hPa | 0 mm | - | 243 W/m² | - |
| 1777310668 | 17.78° C | 54% | 1016.7 hPa | 0 mm | - | 285 W/m² | - |
* Rain latest hour (hover to see other rain measurements)
** Current wind speed in m/s (hover to see current wind gust speed)